Tracking 18852 objects as of 24-Nov-2017
HD Live streaming from Space Station
objects crossing your sky now

FENGYUN 1C DEB

Track FENGYUN 1C DEB now!
10-day predictions


NORAD ID: 31044
Int'l Code: 1999-025BEN
Perigee: 560.0 km
Apogee: 648.4 km
Inclination: 99.4 °
Period: 96.6 minutes
Semi major axis: 6975 km
RCS: 0.0074 m2 (small)
Launch date: May 10, 1999
Source: People's Republic of China (PRC)
Launch site: Taiyaun Space Center, China (TSC)

Note: This is SATELLITE DEBRIS
aabbcc
Your satellite tracking list
Your tracking list is empty




NASA's NSSDC Master Catalog

Two Line Element Set (TLE):
1 31044U 99025BEN 17326.74969457 +.00006962 +00000-0 +69797-3 0  9991
2 31044 099.4313 166.6176 0063332 010.1528 350.0948 14.90272808567312
Source of the keplerian elements: AFSPC